Location: Namasale
(1.5000°N, 32.6167°E)
Time: 23:55:56
(UTC+00:00)

Transit 2A - Pass Details

Date: 21 April 2021
Orbit: 602 x 957 km, 66.7° (Epoch: 11 May)

Event Time Altitude Azimuth Distance (km) Brightness Sun altitude
Rises 14:28:38 0° 353° (N) 3,035 9.4 19.8°
Reaches altitude 10° 14:30:57 10° 360° (N) 2,172 8.6 19.2°
Maximum altitude 14:35:39 43° 72° (ENE) 1,055 6.6 18.0°
Drops below altitude 10° 14:40:50 10° 142° (SE) 2,406 8.2 16.8°
Sets 14:43:31 0° 148° (SSE) 3,400 8.9 16.1°
